Oak Ridge, TN

4:04 AM EST on November 18, 2019 (GMT -0500)
Oak Ridge

Weather History for KOQT - September, 2019

Change the Weather History Date:

Thursday, September 12, 2019

  Actual Average (WUND) Record (WUND)
Temperature  
Mean Temperature 82 °F -  
Max Temperature 96 °F - - (-1)
Min Temperature 69 °F - - (-1)
Cooling Degree Days 17    
Growing Degree Days 32 (Base 50)    
Moisture  
Dew Point 67 °F    
Average Humidity 75    
Maximum Humidity 93    
Minimum Humidity 36    
Precipitation  
Precipitation 0.00 in - - ()
Sea Level Pressure  
Sea Level Pressure 30.16 in    
Wind  
Wind Speed 1 mph ()    
Max Wind Speed 6 mph    
Max Gust Speed -    
Visibility 7.6 miles    
Events Fog    
Averages and records for this station are not official NWS values.
T = Trace of Precipitation, MM = Missing Value Source: Averaged Metar Reports

Daily Weather History Graph

Daily Weather History Graph

Search for Another Location

Airport or City:

Astronomy

Sep. 12, 2019 Rise Set
Actual Time 7:16 AM EDT 7:48 PM EDT
Civil Twilight 6:51 AM EDT 8:14 PM EDT
Nautical Twilight 6:20 AM EDT 8:44 PM EDT
Astronomical Twilight 5:49 AM EDT 9:15 PM EDT
Moon 7:28 PM EDT (9/12) 5:41 AM EDT (9/12)
Length of Visible Light 13h 23m
Length of Day
12h 31m
Waxing Gibbous, 98% of the Moon is Illuminated
Sep 12
Waxing Gibbous
Sep 14
Full
Sep 21
Last Quarter
Sep 28
New
Oct 5
First Quarter

Hourly Weather History & Observations

Time (EDT) Temp. Heat Index Dew Point Humidity Pressure Visibility Wind Dir Wind Speed Gust Speed Precip Events Conditions
12:53 AM 73.9 °F - 69.1 °F 85% 30.14 in 10.0 mi Calm Calm - N/A   Clear
1:53 AM 73.0 °F - 69.1 °F 87% 30.13 in 10.0 mi Calm Calm - N/A   Clear
2:53 AM 73.0 °F - 69.1 °F 87% 30.12 in 10.0 mi Calm Calm - N/A   Clear
3:53 AM 72.0 °F - 68.0 °F 87% 30.12 in 9.0 mi Calm Calm - N/A   Clear
4:53 AM 71.1 °F - 66.9 °F 87% 30.13 in 8.0 mi Calm Calm - N/A   Clear
5:22 AM 70.0 °F - 66.9 °F 90% 30.18 in 7.0 mi Calm Calm - N/A   Scattered Clouds
5:31 AM 71.1 °F - 66.9 °F 87% 30.18 in 7.0 mi Calm Calm - N/A   Mostly Cloudy
5:49 AM 69.8 °F - 66.2 °F 88% 30.19 in 8.0 mi Calm Calm - N/A   Scattered Clouds
5:53 AM 70.0 °F - 66.9 °F 90% 30.13 in 8.0 mi Calm Calm - N/A   Partly Cloudy
6:53 AM 70.0 °F - 66.9 °F 90% 30.16 in 6.0 mi Calm Calm - N/A   Partly Cloudy
7:53 AM 70.0 °F - 66.9 °F 90% 30.19 in 4.0 mi Calm Calm - N/A   Mostly Cloudy
8:18 AM 70.0 °F - 68.0 °F 93% 30.23 in 1.8 mi Calm Calm - N/A   Overcast
8:27 AM 70.0 °F - 68.0 °F 93% 30.23 in 0.5 mi Calm Calm - N/A Fog Fog
8:53 AM 71.1 °F - 69.1 °F 93% 30.19 in 1.8 mi Calm Calm - N/A   Overcast
9:05 AM 71.1 °F - 69.1 °F 93% 30.23 in 0.8 mi Calm Calm - N/A   Overcast
9:14 AM 71.1 °F - 69.1 °F 93% 30.24 in 1.8 mi Variable 3.5 mph - N/A   Overcast
9:18 AM 71.1 °F - 69.1 °F 93% 30.24 in 3.0 mi Calm Calm - N/A   Overcast
9:53 AM 73.9 °F - 69.1 °F 85% 30.19 in 10.0 mi Calm Calm - N/A   Mostly Cloudy
10:03 AM 75.9 °F - 70.0 °F 82% 30.24 in 10.0 mi Calm Calm - N/A   Scattered Clouds
10:53 AM 81.0 °F 84.4 °F 70.0 °F 69% 30.19 in 10.0 mi Variable 4.6 mph - N/A   Clear
11:53 AM 86.0 °F 89.4 °F 68.0 °F 55% 30.17 in 10.0 mi Calm Calm - N/A   Clear
12:53 PM 89.1 °F 92.1 °F 66.9 °F 48% 30.15 in 10.0 mi East 5.8 mph - N/A   Clear
1:53 PM 91.0 °F 94.3 °F 66.9 °F 45% 30.13 in 10.0 mi Variable 4.6 mph - N/A   Clear
2:53 PM 93.0 °F 96.4 °F 66.9 °F 42% 30.11 in 10.0 mi Variable 3.5 mph - N/A   Clear
3:53 PM 93.9 °F 97.0 °F 66.0 °F 40% 30.09 in 10.0 mi Calm Calm - N/A   Scattered Clouds
5:53 PM 95.0 °F 97.0 °F 64.0 °F 36% 30.07 in 10.0 mi Variable 3.5 mph - N/A   Clear
6:53 PM 91.9 °F 92.5 °F 62.1 °F 37% 30.07 in 10.0 mi Variable 3.5 mph - N/A   Clear
7:53 PM 86.0 °F 87.6 °F 64.9 °F 49% 30.09 in 10.0 mi Calm Calm - N/A   Clear
8:53 PM 82.0 °F 84.5 °F 66.9 °F 60% 30.10 in 10.0 mi Calm Calm - N/A   Clear
9:53 PM 79.0 °F - 66.9 °F 66% 30.11 in 10.0 mi Calm Calm - N/A   Clear
11:53 PM 75.0 °F - 66.9 °F 76% 30.11 in 10.0 mi Calm Calm - N/A   Clear